Location: Blue Sky Observatory
(43.1153°N, 70.9036°W)
Time: 16:52:05
(UTC-04:00)

Daily predictions for brighter satellites

Satellite Brightness Start Highest point End
(mag) Time Altitude Azimuth Time Altitude Azimuth Time Altitude Azimuth
Helios 1A 3.6 20:01:52 10° SE 20:05:48 38° ENE 20:09:46 10° N
Cosmos 1697 Rocket 3.3 20:00:47 10° SW 20:06:23 63° WNW 20:12:00 10° NNE
USA 267 3.7 20:00:10 10° NE 20:06:40 70° NW 20:13:11 10° WSW
Spot 2 Rocket 3.6 20:06:42 10° SSE 20:11:49 88° WSW 20:16:56 10° NNW
Milstar 3 4.2 20:06:46 10° WSW 20:13:41 27° S 20:19:12 10° SE
Cosmos 2297 Rocket 4.4 20:09:36 10° NW 20:14:08 25° WSW 20:18:38 10° SSW
OAO 3 Rocket 4.3 20:10:19 10° SW 20:14:30 29° S 20:18:44 10° ESE
Cosmos 1869 3.7 20:11:01 10° SSE 20:14:43 42° E 20:18:28 10° NNE
Resurs 01 Rocket 2.0 20:11:55 10° S 20:16:21 71° WSW 20:20:48 10° NNW
Cosmos 1892 3.4 20:15:27 10° NNW 20:19:11 56° W 20:22:53 10° S
Cosmos 1400 Rocket 3.9 20:17:40 10° NNW 20:21:25 46° W 20:25:11 10° S
Cosmos 2263 Rocket 3.1 20:17:03 10° N 20:22:02 32° NE 20:26:42 11° ESE
GRACE-1 3.9 20:20:46 10° N 20:23:32 83° W 20:26:15 10° S
GRACE-2 3.8 20:21:09 10° N 20:23:55 84° W 20:26:39 10° S
CZ-4B DEB 3.3 20:22:04 10° SE 20:24:55 37° ENE 20:27:47 10° N
YAOGAN 6 4.1 20:22:29 11° ESE 20:25:02 21° ENE 20:27:50 10° NNE
Meteor 1-29 3.5 20:24:00 10° NNE 20:27:16 37° E 20:30:30 10° SSE
Cosmos 2322 Rocket 2.5 20:22:51 10° S 20:28:07 43° ESE 20:33:25 10° NE
H-2A R/B 4.3 20:26:09 10° SSW 20:29:47 37° W 20:33:26 10° NNW
Envisat 3.1 20:26:44 10° SSE 20:31:44 62° ENE 20:36:46 10° N
Cosmos 220 Rocket 4.1 20:28:00 10° NNW 20:32:26 64° ENE 20:36:43 11° SSE
Cosmos 1302 Rocket 4.2 20:27:23 10° SSW 20:32:35 79° WNW 20:37:48 10° NNE
Cosmos 1315 Rocket 3.3 20:30:59 10° NNW 20:35:03 64° W 20:39:02 10° S
Cosmos 2360 Rocket 3.4 20:34:46 10° SSE 20:38:50 21° E 20:42:56 10° NE
Cosmos 1933 4.2 20:35:43 11° SSE 20:39:05 30° E 20:42:38 10° NNE
Cosmos 1980 Rocket 3.0 20:33:47 10° SW 20:39:21 58° WNW 20:45:00 10° NNE
USA 234 3.3 20:35:33 13° SE 20:41:36 89° NE 20:48:11 10° NW
Cosmos 2026 Rocket 4.0 20:36:13 10° N 20:42:29 73° E 20:48:37 10° SSE
Intercosmos 25 Rocket 3.0 20:44:18 10° S 20:47:25 64° E 20:51:19 10° NNE
Cosmos 1825 2.1 20:45:03 10° N 20:48:52 78° E 20:52:20 12° SSE
SL-16 R/B 2.1 20:50:05 10° SSW 20:55:43 72° ESE 21:01:23 10° NNE
Cosmos 1862 3.2 20:57:43 10° N 21:01:46 75° E 21:04:33 19° SSE
Cosmos 397 4.4 20:57:28 10° NNW 21:01:50 79° ENE 21:04:06 25° SE
ATLAS 5 CENTAUR R/B 2.9 20:56:29 10° NNW 21:02:11 47° NE 21:06:11 21° ESE
Cosmos 1634 Rocket 4.5 20:56:38 10° SSW 21:02:52 66° W 21:09:12 10° N
Helios 1B rocket 3.0 20:59:30 10° N 21:03:33 61° WNW 21:07:35 10° SSW
ERS-1 Rocket 3.0 21:02:09 20° SSE 21:05:37 62° ENE 21:10:35 10° N
Lacrosse 4 Rocket 1.6 21:01:38 10° NNW 21:05:57 72° WSW 21:08:46 21° SSE
USA 186 4.2 21:04:29 10° SW 21:06:26 18° W 21:08:29 10° NW
Cosmos 1655 Rocket 4.1 21:02:50 10° N 21:09:16 87° W 21:15:37 10° S
Cosmos 1733 Rocket 3.1 21:06:21 10° N 21:10:50 84° W 21:14:14 17° S
ERBS 3.6 21:08:00 10° WNW 21:11:10 33° SW 21:12:44 22° S
Cosmos 1939 Rocket 3.4 21:08:25 12° S 21:12:03 59° W 21:16:02 10° NNW
ARGOS 3.7 21:11:28 25° ESE 21:13:57 40° ENE 21:18:57 10° N
Cosmos 2278 Rocket 4.5 21:13:32 10° NNE 21:15:01 11° NE 21:16:31 10° NE
Cosmos 1862 Rocket 3.6 21:13:35 10° S 21:18:03 86° WNW 21:22:34 10° N
SeaSat 1 2.9 21:17:14 28° ESE 21:19:26 46° ENE 21:24:10 10° NNW
Meteor 1-26 Rocket 4.4 21:16:14 21° SSE 21:19:48 50° E 21:25:22 10° NNE
USA 229 DEB 4.1 21:17:09 10° S 21:23:16 37° ESE 21:29:31 10° NE
USA 229 4.1 21:17:15 10° S 21:23:22 37° ESE 21:29:35 10° NE
Cosmos 1408 4.2 21:20:53 10° NNW 21:24:15 34° W 21:27:28 11° SSW
Cosmos 1992 Rocket 4.0 21:19:58 10° SSW 21:25:12 83° WNW 21:30:29 10° NNE
Cosmos 1844 Rocket 4.1 21:20:46 10° N 21:25:18 25° NE 21:27:24 20° E
Atlas Centaur 2 3.8 21:24:02 10° SW 21:30:10 28° SSE 21:31:32 26° SSE
Cosmos 2266 Rocket 4.1 21:24:18 10° N 21:30:30 61° E 21:33:36 31° SSE
Okean 1-7 3.9 21:31:06 32° E 21:31:06 32° E 21:34:54 10° NNE
Terra 3.4 21:31:11 19° ENE 21:31:51 20° ENE 21:35:14 10° NNE
SL-08 RB Rocket 4.2 21:31:41 37° ESE 21:32:44 44° ENE 21:37:04 10° N
Abrixas rocket 3.6 21:31:11 10° W 21:34:16 36° NNW 21:35:56 21° NE
MOS 1-B Rocket 4.0 21:32:22 32° SE 21:35:02 58° ENE 21:40:33 10° N
YAOGAN 11 4.0 21:36:20 43° SSE 21:37:44 81° ENE 21:42:06 10° NNW
Cosmos 1703 Rocket 3.6 21:37:03 47° SE 21:38:01 58° E 21:42:23 10° NNE
CZ-4C R/B 4.3 21:36:31 10° NNW 21:42:01 25° NNE 21:46:59 13° E
Cosmos 2221 Rocket 3.7 21:44:07 50° ESE 21:44:16 50° E 21:48:34 10° NNE
Cosmos 2219 Rocket 4.0 21:46:58 15° ENE 21:46:58 15° ENE 21:48:26 10° ENE
MetOp-A 4.2 21:47:16 33° S 21:49:46 75° WSW 21:55:09 10° NNW
Cosmos 1867 3.5 21:45:04 10° NNW 21:50:33 81° NE 21:52:05 49° SE
H-2A R/B 2.1 21:52:50 48° ESE 21:53:40 54° ENE 21:58:30 10° N
Meteor 1-14 Rocket 4.1 21:48:02 10° N 21:53:43 86° E 21:55:46 42° SSE
OAO 3 Rocket 4.4 21:53:08 10° WSW 21:56:38 29° SSW 21:56:38 29° SSW
Cosmos 2237 4.2 22:00:10 50° SSE 22:01:15 59° ESE 22:06:53 10° NNE
ASTEX 1 4.2 22:03:59 35° ENE 22:03:59 35° ENE 22:08:23 10° NNE
SPOT 5 3.0 22:04:10 47° SSW 22:05:26 67° WSW 22:10:07 10° NNW
Cosmos 968 Rocket 3.7 22:00:20 10° NNW 22:05:29 66° WSW 22:06:50 47° SSW
Cosmos 2263 Rocket 3.2 22:00:53 10° NW 22:06:01 39° WSW 22:08:25 26° SSW
Nadezhda 2 Rocket 4.5 22:02:03 10° N 22:08:30 73° E 22:10:16 50° SSE
Meteor 1-25 Rocket 4.1 22:03:59 10° N 22:09:37 86° E 22:10:48 58° SSE
COSMOS 2428 2.8 22:10:12 52° ESE 22:10:12 52° ESE 22:15:34 10° NE
Meteor 2-10 Rocket 4.4 22:05:36 12° SSW 22:10:53 54° WNW 22:16:34 10° N
Cosmos 2322 Rocket 4.0 22:07:24 10° WSW 22:12:18 30° NW 22:17:14 10° N
Cosmos 2360 Rocket 2.7 22:16:47 10° SW 22:22:21 59° WNW 22:27:57 10° NNE
H-2A R/B 2.4 22:23:59 56° NNE 22:23:59 56° NNE 22:27:37 10° N
Cosmos 1844 3.9 22:22:22 10° NNW 22:27:58 55° ENE 22:28:20 54° ENE
Meteor 1-20 Rocket 4.2 22:23:44 10° NNW 22:29:17 74° W 22:30:10 62° SSW
Cosmos 2322 4.2 22:25:27 15° SW 22:30:13 59° WNW 22:35:52 10° NNE
S3M 4.3 22:32:12 48° E 22:32:12 48° E 22:37:56 10° NNE
Cosmos 1606 4.3 22:38:58 30° N 22:38:58 30° N 22:40:58 10° N
Meteor 2-6 Rocket 4.2 22:39:59 77° SE 22:40:20 81° E 22:46:20 10° NNE
SPOT 1/Viking Rocket 4.2 22:40:22 43° WSW 22:41:05 46° W 22:46:08 10° NNW
IGS 5A 4.3 22:42:18 47° N 22:42:18 47° N 22:45:18 10° N
Okean 2 Rocket 4.0 22:40:51 10° NNW 22:44:59 44° W 22:44:59 44° W
ATLAS 5 CENTAUR R/B 3.3 22:41:21 10° NW 22:46:54 38° WSW 22:47:45 36° SW
Cosmos 2333 Rocket 3.1 22:52:12 38° ENE 22:52:12 38° ENE 22:56:03 10° NE
Cosmos 2333 4.1 22:51:47 79° WSW 22:52:02 82° WNW 22:57:51 10° NNE
Cosmos 1782 4.2 22:53:34 37° NNW 22:53:34 37° NNW 22:56:23 10° N
SeaSat 1 4.0 22:57:02 25° WSW 22:57:07 25° WSW 23:01:10 10° NW
Cosmos 2237 Rocket 3.5 22:59:46 29° ENE 22:59:46 29° ENE 23:02:50 10° NE
Cosmos 2278 Rocket 2.6 22:54:53 10° NNW 23:00:07 54° NE 23:00:07 54° NE
Cosmos 1898 Rocket 4.4 22:55:38 10° N 22:59:48 39° NE 22:59:48 39° NE
Cosmos 1745 Rocket 3.9 22:59:09 10° N 23:05:30 82° E 23:05:30 82° E
Terra 2.7 23:10:04 44° WNW 23:10:04 44° WNW 23:13:52 10° NNW
Cosmos 1844 Rocket 3.1 23:04:07 10° NNW 23:09:04 53° W 23:09:04 53° W
NOSS 3-1 (C) 3.6 23:11:30 62° NE 23:11:30 62° NE 23:16:55 10° NE
Meteor 1-27 Rocket 3.8 23:12:59 72° NNW 23:12:59 72° NNW 23:18:03 10° N
USA 229 DEB 4.4 23:07:26 10° WSW 23:14:03 51° NW 23:20:50 10° NNE
USA 229 4.4 23:07:30 10° WSW 23:14:08 51° NW 23:20:55 10° NNE
Meteor 2-11 Rocket 4.4 23:16:06 76° NNE 23:16:06 76° NNE 23:21:45 10° N
CZ-2C R/B 4.5 23:14:59 10° NE 23:17:20 20° ENE 23:17:20 20° ENE
NOSS 3-1 (A) 3.9 23:26:28 50° NE 23:26:28 50° NE 23:31:19 10° NE
ATLAS 2AS CENTAUR R/B 4.5 23:29:17 21° E 23:29:17 21° E 23:32:55 10° ENE
Cosmos 2219 Rocket 2.6 23:28:37 61° NNW 23:28:37 61° NNW 23:33:41 10° NNE
CZ-4C R/B 2.8 23:24:31 10° NW 23:31:39 78° NE 23:32:09 75° E
H-2A R/B 4.0 23:33:27 18° W 23:33:27 18° W 23:36:47 10° NW
Meteor 1-11 Rocket 4.3 23:28:31 10° NNW 23:33:08 49° WNW 23:33:08 49° WNW
Cosmos 2315 Rocket 4.3 23:46:15 57° NE 23:46:15 57° NE 23:51:19 10° NNE
Cosmos 2297 4.3 23:46:06 10° NNW 23:50:39 52° N 23:50:39 52° N
